User: anonymous   Login
Location: Unspecified
(0.0000°N, 0.0000°E)
Time: 01:31:53
(UTC+00:00)
Language:

A-11 Canister half - Orbit

View from above orbital plane
View from above orbital plane
View from above satellite
View from above satellite

Ground track
Ground track

The orbit data is extracted from the following two-line orbital elements,

1 00053U 60009E   16272.99349835 -.00000086  00000-0  00000+0 0  9995
2 00053  47.2748 124.9558 0099652  30.5869 330.0682 12.17191333503223
Epoch (UTC): 28 September 2016 23:50:38
Eccentricity: 0.0099652
inclination: 47.2748°
perigee height: 1525 km
apogee height: 1684 km
right ascension of ascending node: 124.9558°
argument of perigee: 30.5869°
revolutions per day: 12.17191333
mean anomaly at epoch: 330.0682°
orbit number at epoch: 50322

The dashed part of the orbit path shows where the satellite is in the earth's shadow,  

DLR